Location: Boitzum
(52.1496°N, 9.6943°E)
Time: 00:25:52
(UTC+00:00)

Cosmos 2227 Rocket - Pass Details

Date: 13 January 2026
Orbit: 837 x 845 km, 71.0° (Epoch: 9 February)

Event Time Altitude Azimuth Distance (km) Brightness Sun altitude
Exits shadow 05:00:00 12° 343° (NNW) 2,296 4.2 -21.3°
Maximum altitude 05:00:16 12° 346° (NNW) 2,294 4.2 -21.3°
Drops below altitude 10° 05:02:37 10° 11° (N) 2,470 4.6 -20.9°
Sets 05:06:46 0° 40° (NE) 3,408 5.8 -20.3°
